SAUDICOMSAT 5

Satellite information

Favourite Embed

Satellite Type and Status

PAYLOADIN ORBIT

Key statistics

Satellite SAUDICOMSAT 5 at a glance.

Uptime

6596

Days in orbit

Revolutions

≈ 14.7

Per day

Orbit

SSO

Sun Synchronous Orbit

Inclination

98.3

Latest

Satellite identification and parameters

Extended collection of information and parameters for SAUDICOMSAT 5.

Object identification

Identified? True

Debris? False

Object name: SAUDICOMSAT 5

International designator: 2007-012H

Object number (NORAD): 31124

Object ID (CCSDS): 31124

Country: SAUDI ARABIA (SAUD)

Current information (Y/N): Y

RCS size: SMALL

Orbital parameters

Period: 98.139 minutes

Inclination: 98.296 deg

SMA: 7047.794 km

Apoapsis: 702.986 km

Periapsis: 636.333 km

RAAN: 91.1673 deg

Eccentricy: 0.0047287

Argument of periapsis: 322.5079 deg

Mean anomaly: 37.283 deg

Mean motion: 14.6731352 rev/day

Mean motion (dot): 0.00001177 rev/day2

B* drag term: 0.00021454 1/REarth

Two-line elements (TLE)

Creation date: May 8, 2025, 3:01 a.m.

Reference frame: TEME

Reference center: EARTH

Epoch: May 7, 2025, 8:51 p.m. UTC

TLE line 0: 0 SAUDICOMSAT 5

TLE line 1: 1 31124U 07012H 25127.86899845 .00001177 00000-0 21454-3 0 9990

TLE line 2: 2 31124 98.2960 91.1673 0047287 322.5079 37.2830 14.67313520964138

Live tracking on map

Real-time ground track for satellite SAUDICOMSAT 5.

In-orbit conjunctions

There are no conjunctions computed for SAUDICOMSAT 5, at the moment. Check back to stay up to date, as we update our databases every day.

Go to all conjunctions

Associated space launch

Rideshare mission with Egyptian and Saudi Arabian Earth observation satellites as well as 14 American cubesats

SAUDICOMSAT 5 was lifted into orbit during the mission ‘Dnepr | EgyptSat 1 & Saudisat 3’, on board a Dnepr space rocket.

The launch took place on April 17, 2007, 6:46 a.m. from 109/95.

For more information about the launch, click the button.

Launch to space Dnepr | EgyptSat 1 & Saudisat 3
Dnepr | EgyptSat 1 & Saudisat 3

Agency: N/A

Status: Launch Successful

Launch date: April 17, 2007, 6:46 a.m. UTC

Rocket: Dnepr

Launch pad: 109/95

Location: Baikonur Cosmodrome, Republic of Kazakhstan

...

Latest news about this satellite

There are no fresh news available about this satellite. Check back as we update our databases every day.


Newsletter sign-up

Weekly statistics, charts and insights to help you stay on top of the space industry.